Tracking 27107 objects as of 20-Mar-2023
HD Live streaming from Space Station
objects crossing your sky now

COSMOS 2491 DEB

Track COSMOS 2491 DEB now!
10-day predictions


NORAD ID: 45127
Int'l Code: 2013-076Z
Perigee: 1,418.2 km
Apogee: 1,470.5 km
Inclination: 82.5 °
Period: 114.6 minutes
Semi major axis: 7815 km
RCS: Unknown
Launch date: December 25, 2013
Source: Commonwealth of Independent States (former USSR) (CIS)
Launch site: PLESETSK MISSILE AND SPACE COMPLEX (PKMTR)

Note: This is SATELLITE DEBRIS
Your satellite tracking list
Your tracking list is empty




NASA's NSSDC Master Catalog

Two Line Element Set (TLE):
1 45127U 13076Z   23078.49076449  .00002202  00000-0  13204-1 0  9996
2 45127  82.4507 168.8746 0033427  16.1453 344.0692 12.56547599143971
Source of the keplerian elements: AFSPC